Weather History for Indianapolis, IN

Change the Weather History Date:

Sunday, December 1, 2013

  Actual Average (KEYE) Record (KEYE)
Temperature  
Mean Temperature 42 °F 37 °F  
Max Temperature 51 °F 44 °F 63 °F (2012)
Min Temperature 32 °F 30 °F 21 °F (2011)
Degree Days  
Heating Degree Days 24 28  
Month to date heating degree days 28  
Since 1 July heating degree days 1052  
Cooling Degree Days 0 0  
Month to date cooling degree days 0  
Year to date cooling degree days 1058  
Moisture  
Dew Point 28 °F    
Average Humidity 66    
Maximum Humidity 84    
Minimum Humidity 49    
Precipitation  
Precipitation 0.00 in 0.08 in 0.78 in (2006)
Month to date precipitation 0.08  
Year to date precipitation 37.79  
Sea Level Pressure  
Sea Level Pressure 30.05 in    
Wind  
Wind Speed 6 mph (WSW)    
Max Wind Speed 10 mph    
Max Gust Speed -    
Visibility 9 miles    
Events      
T = Trace of Precipitation, MM = Missing Value Source: NWS Daily Summary

Daily Weather History Graph

Daily Weather History Graph

Search for Another Location

Airport:

Trip Planner

Search our weather history database for the weather conditions in past years. The results will help you decide how hot, cold, wet, or windy it might be!

Date:

Astronomy

Dec. 01, 2013 Rise Set
Actual Time 7:47 AM EST 5:20 PM EST
Civil Twilight 7:17 AM EST 5:50 PM EST
Nautical Twilight 6:44 AM EST 6:23 PM EST
Astronomical Twilight 6:11 AM EST 6:56 PM EST
Moon 6:05 AM EST (12/1) 4:29 PM EST (12/1)
Length of Visible Light 10h 32m
Length of Day
9h 32m
Waning Crescent, 2% of the Moon is Illuminated
Dec 1
Waning Crescent
Dec 2
New
Dec 9
First Quarter
Dec 17
Full
Dec 25
Last Quarter

Hourly Weather History & Observations

Time (EST) Temp. Windchill Dew Point Humidity Pressure Visibility Wind Dir Wind Speed Gust Speed Precip Events Conditions
12:15 AM 39.6 °F 34.0 °F 23.0 °F 52% 30.13 in 10.0 mi SSW 8.1 mph - N/A   Mostly Cloudy
12:35 AM 37.6 °F 33.1 °F 22.1 °F 54% 30.13 in 10.0 mi South 5.8 mph - N/A   Scattered Clouds
12:55 AM 36.3 °F 31.6 °F 21.9 °F 56% 30.12 in 10.0 mi SSW 5.8 mph - N/A   Clear
1:15 AM 35.6 °F 30.7 °F 21.9 °F 58% 30.11 in 10.0 mi SSW 5.8 mph - N/A   Clear
1:35 AM 34.9 °F 30.8 °F 22.1 °F 60% 30.11 in 10.0 mi SSW 4.6 mph - N/A   Clear
1:55 AM 34.3 °F 30.2 °F 23.0 °F 63% 30.11 in 10.0 mi South 4.6 mph - N/A   Clear
2:15 AM 34.9 °F 30.8 °F 22.1 °F 60% 30.10 in 10.0 mi SSW 4.6 mph - N/A   Clear
2:35 AM 34.5 °F 31.6 °F 22.1 °F 61% 30.10 in 10.0 mi SSW 3.5 mph - N/A   Clear
2:55 AM 34.5 °F 30.4 °F 22.6 °F 62% 30.10 in 10.0 mi SSW 4.6 mph - N/A   Clear
3:15 AM 35.4 °F 31.5 °F 22.8 °F 60% 30.09 in 10.0 mi SSW 4.6 mph - N/A   Clear
3:35 AM 35.1 °F 30.1 °F 22.6 °F 61% 30.09 in 10.0 mi SSW 5.8 mph - N/A   Clear
3:55 AM 34.5 °F 30.4 °F 22.8 °F 62% 30.09 in 10.0 mi SSW 4.6 mph - N/A   Clear
4:15 AM 33.8 °F 29.6 °F 23.0 °F 65% 30.08 in 10.0 mi SSW 4.6 mph - N/A   Clear
4:35 AM 34.7 °F 29.6 °F 23.7 °F 64% 30.08 in 10.0 mi SSW 5.8 mph - N/A   Clear
4:55 AM 33.8 °F 28.6 °F 23.9 °F 67% 30.08 in 10.0 mi SW 5.8 mph - N/A   Clear
5:15 AM 34.0 °F 28.8 °F 24.3 °F 68% 30.08 in 10.0 mi SW 5.8 mph - N/A   Clear
5:35 AM 33.8 °F 28.6 °F 24.8 °F 70% 30.08 in 10.0 mi SW 5.8 mph - N/A   Clear
5:55 AM 32.9 °F 26.7 °F 24.6 °F 72% 30.08 in 10.0 mi SW 6.9 mph - N/A   Clear
6:15 AM 32.9 °F 27.5 °F 24.8 °F 72% 30.08 in 10.0 mi SW 5.8 mph - N/A   Clear
6:35 AM 32.9 °F 26.7 °F 24.8 °F 72% 30.08 in 10.0 mi SW 6.9 mph - N/A   Clear
6:55 AM 32.9 °F 26.7 °F 25.0 °F 73% 30.08 in 10.0 mi SW 6.9 mph - N/A   Clear
7:15 AM 32.9 °F 27.5 °F 25.3 °F 74% 30.08 in 10.0 mi SW 5.8 mph - N/A   Clear
7:35 AM 32.9 °F 28.5 °F 25.3 °F 74% 30.08 in 10.0 mi SW 4.6 mph - N/A   Clear
7:55 AM 32.9 °F 27.5 °F 25.5 °F 74% 30.08 in 10.0 mi SW 5.8 mph - N/A   Clear
8:15 AM 32.9 °F 27.5 °F 25.5 °F 74% 30.08 in 10.0 mi SW 5.8 mph - N/A   Clear
8:35 AM 34.2 °F 29.0 °F 26.6 °F 74% 30.08 in 10.0 mi SW 5.8 mph - N/A   Clear
8:55 AM 36.0 °F 31.1 °F 27.9 °F 72% 30.08 in 10.0 mi SW 5.8 mph - N/A   Clear
9:15 AM 37.8 °F 33.3 °F 28.4 °F 69% 30.08 in 10.0 mi SW 5.8 mph - N/A   Clear
9:35 AM 39.4 °F 35.2 °F 29.5 °F 68% 30.09 in 10.0 mi WSW 5.8 mph - N/A   Clear
9:55 AM 40.8 °F 35.6 °F 29.8 °F 65% 30.09 in 10.0 mi WSW 8.1 mph - N/A   Clear
10:15 AM 42.1 °F 37.1 °F 30.9 °F 65% 30.09 in 10.0 mi WSW 8.1 mph - N/A   Clear
10:35 AM 43.0 °F 38.8 °F 31.1 °F 63% 30.09 in 10.0 mi WSW 6.9 mph - N/A   Clear
10:55 AM 44.1 °F 40.1 °F 31.6 °F 62% 30.09 in 10.0 mi WSW 6.9 mph - N/A   Clear
11:15 AM 44.8 °F 42.4 °F 31.8 °F 60% 30.09 in 10.0 mi SW 4.6 mph - N/A   Clear
11:35 AM 45.9 °F 43.6 °F 32.0 °F 58% 30.08 in 10.0 mi WSW 4.6 mph - N/A   Clear
11:55 AM 47.1 °F - 32.0 °F 56% 30.07 in 10.0 mi SW 6.9 mph - N/A   Clear
12:15 PM 48.6 °F - 32.4 °F 54% 30.06 in 10.0 mi WSW 8.1 mph - N/A   Clear
12:35 PM 49.3 °F - 32.7 °F 53% 30.06 in 10.0 mi West 5.8 mph - N/A   Clear
12:55 PM 49.1 °F - 32.4 °F 53% 30.05 in 10.0 mi WSW 6.9 mph - N/A   Clear
1:15 PM 51.1 °F - 32.7 °F 50% 30.03 in 10.0 mi West 6.9 mph - N/A   Clear
1:35 PM 50.5 °F - 32.5 °F 50% 30.03 in 10.0 mi WNW 8.1 mph - N/A   Clear
1:55 PM 50.4 °F - 32.4 °F 50% 30.02 in 10.0 mi West 9.2 mph - N/A   Clear
2:15 PM 50.5 °F - 32.9 °F 51% 30.01 in 10.0 mi West 6.9 mph - N/A   Clear
2:35 PM 50.5 °F - 32.2 °F 49% 30.01 in 10.0 mi West 10.4 mph - N/A   Clear
2:55 PM 50.0 °F - 32.0 °F 50% 30.00 in 10.0 mi West 8.1 mph - N/A   Clear
3:15 PM 50.2 °F - 32.0 °F 50% 30.00 in 10.0 mi WSW 9.2 mph - N/A   Clear
3:35 PM 50.2 °F - 32.0 °F 50% 29.99 in 10.0 mi West 8.1 mph - N/A   Clear
3:55 PM 49.5 °F - 32.0 °F 51% 29.99 in 10.0 mi West 6.9 mph - N/A   Clear
4:15 PM 48.7 °F - 32.0 °F 52% 29.99 in 10.0 mi West 6.9 mph - N/A   Clear
4:35 PM 47.7 °F - 32.0 °F 55% 29.99 in 10.0 mi West 6.9 mph - N/A   Clear
4:55 PM 45.9 °F 43.6 °F 31.8 °F 58% 29.99 in 10.0 mi NW 4.6 mph - N/A   Clear
5:15 PM 43.9 °F 41.3 °F 31.1 °F 61% 29.99 in 10.0 mi NW 4.6 mph - N/A   Clear
5:35 PM 41.4 °F 38.4 °F 30.2 °F 65% 29.99 in 10.0 mi NW 4.6 mph - N/A   Clear
5:55 PM 40.3 °F 36.3 °F 30.0 °F 67% 30.00 in 10.0 mi NNW 5.8 mph - N/A   Clear
6:15 PM 37.4 °F 32.8 °F 28.6 °F 70% 30.00 in 10.0 mi NNW 5.8 mph - N/A   Clear
6:35 PM 36.7 °F 32.0 °F 28.8 °F 73% 30.00 in 10.0 mi NNW 5.8 mph - N/A   Clear
6:55 PM 37.0 °F 32.4 °F 29.5 °F 74% 30.00 in 10.0 mi North 5.8 mph - N/A   Clear
7:15 PM 36.0 °F 31.1 °F 28.6 °F 75% 30.01 in 10.0 mi North 5.8 mph - N/A   Clear
7:35 PM 32.9 °F 27.5 °F 27.5 °F 81% 30.00 in 10.0 mi North 5.8 mph - N/A   Clear
7:55 PM 35.4 °F 29.7 °F 30.0 °F 81% 30.00 in 10.0 mi North 6.9 mph - N/A   Clear
8:15 PM 36.0 °F 32.1 °F 30.4 °F 80% 30.00 in 10.0 mi North 4.6 mph - N/A   Clear
8:35 PM 35.8 °F - 30.0 °F 80% 30.00 in 7.0 mi Calm Calm - N/A   Clear
8:55 PM 37.4 °F - 30.9 °F 77% 29.99 in 10.0 mi Calm Calm - N/A   Clear
9:15 PM 36.1 °F 32.3 °F 29.7 °F 77% 29.99 in 7.0 mi NNE 4.6 mph - N/A   Clear
9:35 PM 36.3 °F 32.5 °F 30.6 °F 80% 29.99 in 7.0 mi NE 4.6 mph - N/A   Clear
9:55 PM 37.4 °F 32.8 °F 31.1 °F 78% 29.99 in 7.0 mi ENE 5.8 mph - N/A   Clear
10:15 PM 36.5 °F 33.9 °F 30.9 °F 80% 29.99 in 7.0 mi NE 3.5 mph - N/A   Clear
10:35 PM 35.8 °F 33.0 °F 30.6 °F 81% 29.99 in 5.0 mi NE 3.5 mph - N/A   Haze
10:55 PM 35.1 °F 32.2 °F 30.2 °F 82% 29.99 in 5.0 mi NNE 3.5 mph - N/A   Haze
11:15 PM 34.7 °F - 30.0 °F 83% 29.97 in 5.0 mi Calm Calm - N/A   Haze
11:35 PM 34.5 °F - 30.0 °F 84% 29.97 in 5.0 mi Calm Calm - N/A   Haze
11:55 PM 34.7 °F 31.8 °F 29.7 °F 82% 29.96 in 5.0 mi NE 3.5 mph - N/A   Haze